Latest Weather Observations for Camden

IDN60801

Issued at 10:32 pm EST Tuesday 3 May 2016 (issued every 30 minutes, with the page automatically refreshed every 10 minutes)

About weather observations | Map of weather stations | Latest weather observations for NSW | Other Formats
Station Details ID: 068192 Name: CAMDEN AIRPORT AWS Lat: -34.04 Lon: 150.69 Height: 73.9 m
Data from the previous 72 hours. | See also: Recent months at Camden
Date/Time
EST
Temp
°C
App
Temp
°C
Dew
Point
Rel
Hum
%
Delta-T
°C
Wind Press
QNH
hPa
Press
MSL
hPa
Rain
since 9 am
mm
Dir
 
Spd
km/h
Gust
km/h
Spd
kts
Gust
kts
03/10:30pm 10.8 8.0 5.1 68 2.6 SSE 9 11 5 6 1010.6 1010.6 0.0
03/10:00pm 11.6 9.7 4.8 63 3.1 SSW 4 7 2 4 1010.2 1010.2 0.0
03/09:30pm 12.1 9.2 4.6 60 3.4 S 9 9 5 5 1010.0 1010.0 0.0
03/09:00pm 14.9 13.5 5.4 53 4.5 NW 2 6 1 3 1009.6 1009.6 0.0
03/08:30pm 17.0 14.3 5.6 47 5.5 NNW 9 13 5 7 1009.1 1009.1 0.0
03/08:00pm 18.0 15.9 5.9 45 6.0 NNW 6 9 3 5 1008.9 1008.9 0.0
03/07:30pm 16.9 14.1 5.2 46 5.6 NW 9 11 5 6 1008.5 1008.5 0.0
03/07:00pm 16.8 15.1 3.8 42 6.1 NNW 2 7 1 4 1008.2 1008.2 0.0
03/06:30pm 16.7 13.7 4.1 43 5.9 NNW 9 13 5 7 1007.8 1007.8 0.0
03/06:00pm 18.6 15.4 3.3 36 7.2 NW 9 13 5 7 1007.5 1007.5 0.0
03/05:30pm 20.4 16.4 2.7 31 8.3 NW 13 17 7 9 1006.9 1006.8 0.0
03/05:00pm 22.1 18.0 2.2 27 9.4 NW 13 20 7 11 1006.5 1006.4 0.0
03/04:30pm 23.7 18.5 2.5 25 10.2 NW 19 26 10 14 1006.4 1006.3 0.0
03/04:00pm 24.6 18.8 2.1 23 10.8 NW 22 30 12 16 1006.1 1006.0 0.0
03/03:30pm 25.1 19.8 1.9 22 11.1 NW 19 28 10 15 1006.1 1006.0 0.0
03/03:00pm 25.6 20.1 1.7 21 11.5 NW 20 32 11 17 1006.1 1006.0 0.0
03/02:30pm 25.8 20.6 2.5 22 11.3 NW 19 24 10 13 1006.2 1006.1 0.0
03/02:00pm 25.3 20.2 3.3 24 10.8 NW 19 30 10 16 1006.6 1006.5 0.0
03/01:30pm 24.8 20.1 2.9 24 10.7 WNW 17 33 9 18 1006.9 1006.8 0.0
03/01:00pm 25.0 20.1 4.2 26 10.4 NW 19 28 10 15 1007.4 1007.4 0.0
03/12:30pm 24.2 20.2 5.1 29 9.6 NNW 15 20 8 11 1008.0 1008.0 0.0
03/12:00pm 23.5 18.7 4.9 30 9.3 WNW 19 28 10 15 1008.8 1008.8 0.0
03/11:30am 22.4 17.0 4.5 31 8.8 WNW 22 28 12 15 1009.5 1009.5 0.0
03/11:00am 21.6 17.4 5.9 36 7.9 NNW 17 26 9 14 1010.3 1010.3 0.0
03/10:30am 20.5 16.8 6.1 39 7.2 N 15 22 8 12 1010.9 1010.9 0.0
03/10:00am 18.8 16.3 6.6 45 6.1 NNW 9 11 5 6 1011.8 1011.8 0.0
03/09:30am 16.5 14.9 8.2 58 4.2 N 6 9 3 5 1012.2 1012.2 0.0
03/09:00am 13.5 12.9 7.5 67 3.0 CALM 0 0 0 0 1012.7 1012.7 0.0
03/08:30am 10.2 9.4 6.7 79 1.6 CALM 0 6 0 3 1012.9 1012.9 0.0
03/08:00am 8.4 7.8 7.2 92 0.6 CALM 0 0 0 0 1012.7 1012.7 0.0
03/07:30am 6.4 5.2 6.3 99 0.0 NNE 2 6 1 3 1012.7 1012.7 0.0
03/07:00am 4.5 2.9 4.4 99 0.0 SSE 2 6 1 3 1012.7 1012.7 0.0
03/06:30am 4.0 1.9 3.7 98 0.1 S 4 9 2 5 1012.6 1012.6 0.0
03/06:10am 4.9 3.7 4.8 99 0.0 CALM 0 0 0 0 1012.4 1012.4 0.0
03/06:00am 4.8 3.6 4.7 99 0.0 CALM 0 0 0 0 1012.2 1012.2 0.0
03/05:30am 5.1 3.2 5.0 99 0.0 N 4 7 2 4 1011.9 1011.9 0.0
03/05:00am 5.2 3.7 4.9 98 0.1 ESE 2 6 1 3 1011.7 1011.7 0.0
03/04:44am 5.6 4.5 5.3 98 0.1 CALM 0 0 0 0 1011.8 1011.8 0.0
03/04:40am 5.6 4.5 5.3 98 0.1 CALM 0 0 0 0 1011.8 1011.8 0.0
03/04:30am 5.7 4.7 5.4 98 0.1 CALM 0 0 0 0 1011.7 1011.7 0.0
03/04:09am 5.5 4.4 4.9 96 0.3 CALM 0 0 0 0 1011.6 1011.6 0.0
03/04:00am 5.7 4.6 5.0 95 0.3 CALM 0 0 0 0 1011.5 1011.5 0.0
03/03:30am 5.7 4.1 4.7 93 0.4 SW 2 7 1 4 1011.5 1011.5 0.0
03/03:00am 5.7 4.4 4.3 91 0.6 CALM 0 2 0 1 1011.7 1011.7 0.0
03/02:30am 6.3 4.1 5.4 94 0.4 S 6 7 3 4 1012.0 1012.0 0.0
03/02:00am 6.5 5.1 5.5 93 0.4 ENE 2 9 1 5 1012.1 1012.1 0.0
03/01:30am 7.0 6.0 5.8 92 0.5 CALM 0 0 0 0 1012.6 1012.6 0.0
03/01:00am 7.1 6.1 5.6 90 0.7 CALM 0 0 0 0 1013.1 1013.1 0.0
03/12:30am 8.0 7.3 7.1 94 0.4 CALM 0 0 0 0 1013.5 1013.5 0.0
03/12:00am 8.1 7.2 6.1 87 0.9 CALM 0 0 0 0 1013.5 1013.5 0.0
 
Date/Time
EST
Temp
°C
App
Temp
°C
Dew
Point
Rel
Hum
%
Delta-T
°C
Wind Press
QNH
hPa
Press
MSL
hPa
Rain
since 9 am
mm
Dir
 
Spd
km/h
Gust
km/h
Spd
kts
Gust
kts
02/11:30pm 8.6 6.7 6.7 88 0.9 S 6 11 3 6 1013.8 1013.8 0.0
02/11:00pm 9.0 8.6 8.4 96 0.3 CALM 0 0 0 0 1014.2 1014.2 0.0
02/10:30pm 9.3 8.9 8.4 94 0.4 CALM 0 0 0 0 1014.3 1014.3 0.0
02/10:00pm 10.0 8.9 8.4 90 0.8 N 4 7 2 4 1014.2 1014.2 0.0
02/09:30pm 10.7 9.7 8.8 88 0.9 NNW 4 7 2 4 1014.0 1014.0 0.0
02/09:00pm 11.0 10.6 8.2 83 1.4 CALM 0 0 0 0 1014.2 1014.2 0.0
02/08:30pm 11.8 11.5 8.6 81 1.6 CALM 0 0 0 0 1013.9 1013.9 0.0
02/08:00pm 14.6 13.3 9.8 73 2.5 S 7 7 4 4 1013.8 1013.8 0.0
02/07:30pm 14.8 15.0 10.4 75 2.3 CALM 0 4 0 2 1013.6 1013.6 0.0
02/07:00pm 14.8 14.9 10.2 74 2.4 CALM 0 0 0 0 1013.3 1013.3 0.0
02/06:30pm 15.5 15.3 9.2 66 3.3 CALM 0 0 0 0 1012.9 1012.9 0.0
02/06:00pm 16.1 16.1 9.8 66 3.3 CALM 0 0 0 0 1012.4 1012.4 0.0
02/05:30pm 18.2 16.6 8.7 54 4.9 ESE 7 9 4 5 1012.0 1012.0 0.0
02/05:00pm 18.2 18.1 9.3 56 4.7 CALM 0 0 0 0 1012.0 1012.0 0.0
02/04:30pm 19.7 19.2 7.8 46 6.1 CALM 0 0 0 0 1012.0 1012.0 0.0
02/04:00pm 20.3 19.8 8.0 45 6.4 CALM 0 0 0 0 1012.1 1012.1 0.0
02/03:30pm 21.0 19.3 7.6 42 6.9 N 6 9 3 5 1012.2 1012.2 0.0
02/03:00pm 21.3 19.1 6.0 37 7.7 NNE 7 11 4 6 1012.3 1012.3 0.0
02/02:30pm 21.6 18.6 5.9 36 7.9 N 11 13 6 7 1012.3 1012.3 0.0
02/02:00pm 21.6 18.5 5.5 35 8.0 NNE 11 17 6 9 1012.1 1012.1 0.0
02/01:30pm 21.5 18.3 5.0 34 8.2 NE 11 15 6 8 1012.2 1012.2 0.0
02/01:00pm 21.7 18.8 4.7 33 8.4 NE 9 13 5 7 1012.8 1012.8 0.0
02/12:30pm 22.1 18.0 4.2 31 8.8 NNW 15 24 8 13 1013.7 1013.7 0.0
02/12:00pm 21.9 19.3 4.0 31 8.7 N 7 15 4 8 1013.5 1013.5 0.0
02/11:30am 21.3 18.3 4.0 32 8.4 NNW 9 19 5 10 1014.2 1014.2 0.0
02/11:00am 19.8 17.3 4.7 37 7.3 SSW 7 15 4 8 1015.0 1015.0 0.0
02/10:30am 19.7 18.0 5.7 40 6.9 NNE 4 9 2 5 1015.8 1015.7 0.0
02/10:00am 18.2 16.0 5.1 42 6.3 W 6 11 3 6 1016.4 1016.3 0.0
02/09:30am 17.5 14.8 5.8 46 5.7 WNW 9 13 5 7 1016.9 1016.8 0.0
02/09:00am 15.7 14.9 6.4 54 4.5 CALM 0 0 0 0 1017.2 1017.1 0.0
02/08:30am 13.3 12.6 6.9 65 3.1 CALM 0 0 0 0 1017.5 1017.4 0.0
02/08:00am 10.6 10.0 7.3 80 1.6 CALM 0 0 0 0 1017.7 1017.6 0.0
02/07:30am 8.9 8.2 6.9 87 0.9 CALM 0 0 0 0 1017.6 1017.5 0.0
02/07:00am 7.3 6.4 6.2 93 0.5 CALM 0 0 0 0 1017.6 1017.5 0.0
02/06:30am 6.3 4.9 3.8 84 1.1 CALM 0 0 0 0 1017.5 1017.4 0.0
02/06:00am 8.3 7.4 6.1 86 1.0 CALM 0 0 0 0 1017.4 1017.3 0.0
02/05:30am 8.3 7.2 5.2 81 1.4 CALM 0 0 0 0 1017.2 1017.1 0.0
02/05:00am 9.9 8.8 5.3 73 2.1 CALM 0 0 0 0 1016.8 1016.7 0.0
02/04:30am 9.5 7.1 5.1 74 2.0 WNW 7 11 4 6 1016.1 1016.0 0.0
02/04:00am 10.8 8.1 5.8 71 2.3 WNW 9 11 5 6 1016.0 1015.9 0.0
02/03:30am 12.5 10.2 5.9 64 3.1 N 7 9 4 5 1015.9 1015.8 0.0
02/03:00am 11.9 9.1 5.3 64 3.1 NNE 9 11 5 6 1015.8 1015.7 0.0
02/02:30am 12.7 9.6 5.4 61 3.4 W 11 15 6 8 1015.8 1015.7 0.0
02/02:00am 13.9 10.0 5.3 56 4.0 WSW 15 19 8 10 1015.8 1015.7 0.0
02/01:30am 13.1 9.6 5.5 60 3.6 SW 13 15 7 8 1015.9 1015.8 0.0
02/01:00am 13.3 9.4 5.5 59 3.7 WSW 15 17 8 9 1015.9 1015.8 0.0
02/12:30am 14.2 10.8 5.8 57 4.0 SW 13 20 7 11 1016.2 1016.1 0.0
02/12:00am 15.3 11.6 6.1 54 4.4 SW 15 22 8 12 1016.2 1016.1 0.0
 
Date/Time
EST
Temp
°C
App
Temp
°C
Dew
Point
Rel
Hum
%
Delta-T
°C
Wind Press
QNH
hPa
Press
MSL
hPa
Rain
since 9 am
mm
Dir
 
Spd
km/h
Gust
km/h
Spd
kts
Gust
kts
01/11:30pm 14.6 11.3 6.2 57 4.1 SW 13 15 7 8 1016.3 1016.2 0.0
01/11:00pm 15.3 12.7 6.3 55 4.4 SW 9 11 5 6 1016.4 1016.3 0.0
01/10:30pm 16.0 12.7 6.4 53 4.7 WSW 13 17 7 9 1016.1 1016.0 0.0
01/10:00pm 16.4 12.7 6.5 52 4.9 WSW 15 19 8 10 1016.0 1015.9 0.0
01/09:30pm 18.2 14.1 6.1 45 6.0 SW 17 20 9 11 1015.6 1015.5 0.0
01/09:00pm 18.6 14.9 6.4 45 6.1 SW 15 22 8 12 1014.9 1014.9 0.0
01/08:30pm 19.2 15.1 6.0 42 6.6 WSW 17 22 9 12 1014.4 1014.4 0.0
01/08:00pm 18.7 14.7 6.5 45 6.1 WSW 17 20 9 11 1013.8 1013.8 0.0
01/07:30pm 19.3 16.3 6.1 42 6.6 WSW 11 13 6 7 1013.3 1013.3 0.0
01/07:00pm 21.6 17.4 5.5 35 8.0 WNW 17 24 9 13 1012.7 1012.7 0.0
01/06:30pm 22.1 17.4 5.1 33 8.5 WNW 19 26 10 14 1012.3 1012.3 0.0
01/06:00pm 23.0 18.2 4.5 30 9.2 WNW 19 24 10 13 1011.7 1011.7 0.0
01/05:30pm 23.3 18.9 4.8 30 9.2 WNW 17 20 9 11 1011.2 1011.2 0.0
01/05:00pm 24.7 19.9 5.5 29 9.8 WNW 20 33 11 18 1010.6 1010.6 0.0
01/04:30pm 26.2 21.0 5.7 27 10.6 WNW 22 35 12 19 1010.1 1010.1 0.0
01/04:00pm 27.2 22.1 6.0 26 11.1 NW 22 44 12 24 1010.0 1010.0 0.0
01/03:30pm 27.9 23.1 7.2 27 11.1 WNW 22 43 12 23 1009.5 1009.5 0.0
01/03:00pm 28.3 23.2 9.1 30 10.7 NW 26 35 14 19 1009.1 1009.1 0.0
01/02:30pm 28.7 24.2 9.9 31 10.6 WNW 24 39 13 21 1009.1 1009.1 0.0
01/02:00pm 28.2 24.6 10.4 33 10.1 NW 20 35 11 19 1009.0 1009.0 0.0
01/01:30pm 26.9 24.4 13.6 44 7.9 N 19 30 10 16 1009.1 1009.1 0.0
01/01:00pm 26.1 24.3 16.1 54 6.2 N 20 30 11 16 1009.4 1009.4 0.0
01/12:30pm 25.0 23.3 16.2 58 5.4 N 20 26 11 14 1010.1 1010.1 0.0
01/12:00pm 22.3 20.9 16.6 70 3.5 N 19 26 10 14 1010.8 1010.8 0.0
01/11:30am 21.7 22.1 17.3 76 2.7 N 11 15 6 8 1011.9 1011.9 0.0
01/11:00am 20.5 20.8 16.9 80 2.2 N 11 17 6 9 1012.3 1012.3 0.0
01/10:30am 19.2 18.8 18.0 93 0.7 N 17 22 9 12 1012.8 1012.8 0.0
01/10:00am 17.3 17.3 17.1 99 0.1 NNW 13 17 7 9 1012.9 1012.9 0.0
01/09:30am 16.8 17.8 16.8 100 0.0 W 7 11 4 6 1013.0 1012.9 0.0
01/09:00am 16.1 16.0 16.1 100 0.0 NNW 11 15 6 8 1013.2 1013.1 0.4
01/08:35am 15.1 15.6 15.1 100 0.0 WNW 6 11 3 6 1013.8 1013.7 0.4
01/08:30am 14.9 15.7 14.9 100 0.0 W 4 9 2 5 1013.7 1013.6 0.4
01/08:00am 14.6 14.9 14.6 100 0.0 NNW 6 7 3 4 1013.7 1013.6 0.4
01/07:58am 14.6 14.9 14.6 100 0.0 NNW 6 7 3 4 1013.7 1013.6 0.4
01/07:42am 14.6 14.0 14.6 100 0.0 W 11 17 6 9 1014.0 1013.9 0.4
01/07:40am 14.7 14.5 14.7 100 0.0 W 9 17 5 9 1014.1 1014.0 0.4
01/07:30am 14.7 14.5 14.7 100 0.0 N 9 13 5 7 1013.6 1013.5 0.4
01/07:00am 14.5 14.8 14.5 100 0.0 N 6 9 3 5 1013.9 1013.8 0.4
01/06:30am 14.6 16.1 14.6 100 0.0 CALM 0 0 0 0 1013.6 1013.5 0.4
01/06:00am 14.6 15.3 14.6 100 0.0 NE 4 9 2 5 1013.1 1013.0 0.4
01/05:30am 14.6 16.1 14.6 100 0.0 CALM 0 0 0 0 1013.3 1013.2 0.4
01/05:00am 14.3 13.2 14.3 100 0.0 WSW 13 20 7 11 1013.5 1013.4 0.4
01/04:36am 14.3 15.7 14.3 100 0.0 CALM 0 0 0 0 1012.6 1012.5 0.4
01/04:30am 14.3 15.7 14.3 100 0.0 CALM 0 0 0 0 1012.7 1012.6 0.4
01/04:03am 14.1 15.0 14.1 100 0.0 WNW 2 6 1 3 1013.0 1012.9 0.2
01/04:00am 14.1 15.4 14.1 100 0.0 CALM 0 0 0 0 1013.1 1013.0 0.2
01/03:30am 13.8 14.9 13.6 99 0.1 CALM 0 0 0 0 1013.2 1013.1 0.2
01/03:00am 13.4 14.4 13.2 99 0.1 CALM 0 0 0 0 1013.5 1013.4 0.2
01/02:30am 13.0 13.9 12.8 99 0.1 CALM 0 0 0 0 1013.7 1013.6 0.2
01/02:00am 12.6 13.4 12.4 99 0.1 CALM 0 0 0 0 1013.8 1013.7 0.2
01/01:59am 12.6 13.4 12.4 99 0.1 CALM 0 0 0 0 1013.8 1013.7 0.2
01/01:44am 12.7 13.5 12.5 99 0.1 CALM 0 0 0 0 1014.0 1013.9 0.2
01/01:30am 12.8 13.6 12.6 99 0.1 CALM 0 0 0 0 1014.2 1014.1 0.2
01/01:00am 12.8 13.6 12.6 99 0.1 CALM 0 0 0 0 1014.4 1014.3 0.2
01/12:35am 12.6 13.4 12.4 99 0.1 CALM 0 2 0 1 1014.9 1014.8 0.2
01/12:30am 12.4 12.7 12.2 99 0.1 W 2 6 1 3 1014.9 1014.8 0.2
01/12:00am 13.7 14.4 13.5 99 0.1 W 2 9 1 5 1015.6 1015.4 0.2
 
Date/Time
EST
Temp
°C
App
Temp
°C
Dew
Point
Rel
Hum
%
Delta-T
°C
Wind Press
QNH
hPa
Press
MSL
hPa
Rain
since 9 am
mm
Dir
 
Spd
km/h
Gust
km/h
Spd
kts
Gust
kts
30/11:30pm 13.8 14.9 13.6 99 0.1 CALM 0 0 0 0 1015.5 1015.3 0.2
30/11:00pm 14.0 15.2 13.8 99 0.1 CALM 0 0 0 0 1016.3 1016.1 0.2
30/10:33pm 14.2 15.4 13.7 97 0.3 CALM 0 4 0 2 1016.4 1016.2 0.2

Other Formats:

Comma delimited format used in spreadsheet applications
http://www.bom.gov.au/fwo/IDN60801/IDN60801.94755.axf

JavaScript Object Notation format (JSON) in row-major order
http://www.bom.gov.au/fwo/IDN60801/IDN60801.94755.json